Regional Weather Roundup
Issued by NWS

Home | Current Version | Previous Version | Text Only | Print | Product List | Glossary On
Versions: 1 2 3 4 5 6 7 8 9 10 11 12 13 14 15 16 17 18 19 20 21 22 23 24 25 26 27 28 29 30 31 32 33 34 35 36 37 38 39 40 41 42 43 44 45 46 47 48 49 50
000
ASUS46 KPQR 230310
RWROR

OREGON REGIONAL WEATHER ROUNDUP
NATIONAL WEATHER SERVICE PORTLAND OR
800 PM PDT FRI MAY 22 2015

NOTE: "FAIR" INDICATES FEW OR NO CLOUDS BELOW 12,000 FEET WITH
NO SIGNIFICANT WEATHER AND/OR OBSTRUCTIONS TO VISIBILITY.

ORZ001>013-230400-
NORTHWEST OREGON


CITY           SKY/WX    TMP DP  RH WIND       PRES   REMARKS
ASTORIA        CLOUDY    54  51  90 SW6       30.08R
NEWPORT        PTCLDY    52  50  93 CALM      30.14R
PORTLAND       CLOUDY    59  54  83 SW3       30.05S
VANCOUVER WA   CLOUDY    59  50  72 CALM      30.05S
SCAPPOOSE      CLOUDY    58  49  72 NW6       30.05R
HILLSBORO      CLOUDY    59  54  83 NE3       30.04S
AURORA         CLOUDY    57  55  93 S5        30.06S
MCMINNVILLE    MOCLDY    59  50  72 W12       30.06R
SALEM          CLOUDY    59  51  75 W8        30.06R
CORVALLIS      PTCLDY    57  48  72 NW13      30.08S
EUGENE         PTCLDY    60  48  64 W9        30.06S
$$

ORZ021-028-230400-
SOUTHWEST OREGON


CITY           SKY/WX    TMP DP  RH WIND       PRES   REMARKS
NORTH BEND     CLOUDY    55  52  88 N8        30.13S
BROOKINGS      CLEAR     58  53  83 N5        30.05R
ROSEBURG       PTCLDY    61  46  57 NW5       30.07S
SEXTON SUMMIT  PTCLDY    47  45  93 VRB3      30.06S
MEDFORD        PTCLDY    63  47  55 N12       30.02R
$$

ORZ014>016-041-230400-
COLUMBIA GORGE


CITY           SKY/WX    TMP DP  RH WIND       PRES   REMARKS
TROUTDALE      CLOUDY    59  53  80 S5        30.04S
THE DALLES     MOCLDY    62  48  60 NW21G29   29.92R
$$

ORZ029>031-041-044-049-050-061>064-502-503-505>511-230400-
EASTERN OREGON


CITY           SKY/WX    TMP DP  RH WIND       PRES   REMARKS
REDMOND        MOCLDY    54  46  74 W9        29.97R
BEND           CLOUDY    55  45  67 NW9       29.98S
PRINEVILLE     CLOUDY    54  50  87 W10       29.97R
KLAMATH FALLS  MOCLDY    55  43  63 NW13      30.01R
LAKEVIEW       CLOUDY    52  48  87 W6        30.00R
HERMISTON      CLOUDY    69  51  52 SW16G23   29.83R
PENDLETON      MOCLDY    67  56  67 W5        29.85R
JOHN DAY       CLOUDY    57  50  77 W9        29.94R
MEACHAM        MOCLDY    57  51  80 CALM      29.93R
LA GRANDE      MOCLDY    63  46  55 NW13      29.88R
BAKER CITY     CLOUDY    61  49  64 W13       29.89R
BURNS          CLOUDY    59  46  62 N5        29.92R
ROME             N/A     58  52  80 SW3       29.89R
ONTARIO        CLOUDY    66  51  58 NW14      29.82R
$$


USA.gov is the U.S. government's official web portal to all federal, state and local government web resources and services.